Dewpoint
31 24 20 18 23 26 27 26 32 33 41 42 41 42 44 43 46 49 51 52 52 53 58 60 64 66 66 68 73 73 74 78 78 76 75 76 74 76 75 76 76 76 76 76
25 20 19 18 21 20 20 22 24 30 32 35 43 43 44 43 44 48 50 52 52 53 55 58 61 60 63 69 73 74 76 78 78 79 78 76 77 76 76 74 76 75 73 74
21 20 19 17 16 17 20 17 19 26 29 29 31 41 47 44 44 45 47 51 51 52 54 58 61 62 63 67 71 74 76 77 78 78 79 78 76 76 73 73 70 71 70 71
19 19 18 18 15 15 18 17 16 17 25 24 31 28 46 44 42 44 44 46 48 51 54 56 59 62 63 67 70 74 76 77 77 77 76 75 71 67 72 71 71 70 71 71
15 15 17 19 17 16 17 16 16 16 17 20 23 27 41 43 41 41 42 44 46 49 51 53 55 59 61 66 68 73 76 77 76 75 73 71 71 67 68 68 70 71 71 72
14 12 10 12 13 15 16 24 19 18 18 20 22 27 37 44 47 43 42 43 46 47 49 52 55 59 59 64 67 72 75 75 74 73 72 71 69 69 68 69 68 67 68 68
13 11 13 14 15 17 18 23 24 23 22 21 23 25 37 40 40 45 55 56 45 47 50 53 54 57 61 65 68 72 73 73 73 71 70 68 68 70 70 69 68 69 66 67
12 12 16 15 17 18 19 22 22 28 21 20 27 28 35 34 41 47 50 50 45 46 52 54 58 59 63 66 70 70 72 72 71 71 71 70 71 69 69 71 69 67 67 67
15 18 17 15 17 19 22 22 19 20 19 17 22 28 27 30 29 28 34 33 46 45 48 53 57 60 64 66 69 70 71 72 71 69 73 72 72 71 70 71 71 68 71 65
20 23 16 15 18 18 20 22 20 20 27 25 20 23 25 38 33 32 31 32 39 48 49 51 54 61 65 66 68 69 71 72 70 69 70 69 70 70 71 70 70 70 70 70
18 22 20 18 19 18 19 20 21 18 21 22 21 27 36 41 38 32 32 35 36 39 51 54 56 63 66 65 66 66 68 70 68 68 70 70 67 67 69 69 68 69 71 70
19 18 22 19 18 17 17 22 26 25 31 29 30 25 30 32 31 31 34 34 40 45 49 57 57 63 65 65 64 63 63 65 66 67 70 69 69 68 69 69 68 69 69 70
22 22 21 22 17 19 19 20 19 21 23 36 27 29 39 31 33 36 36 38 50 53 57 60 58 60 64 65 65 62 61 60 62 66 65 68 68 68 69 69 69 69 69 68
33 18 28 15 24 22 24 19 17 16 27 26 27 36 35 35 38 45 42 45 46 55 55 61 61 61 63 65 65 64 60 58 60 61 63 67 68 69 68 69 70 69 69 68
22 34 23 17 15 15 18 19 18 20 26 27 31 36 43 42 39 40 40 42 44 51 55 61 60 62 65 66 65 65 62 63 62 64 65 67 69 69 69 69 69 68 69 68
25 31 26 22 18 16 15 15 21 21 19 20 23 31 40 41 43 39 36 38 45 47 49 55 62 62 66 66 65 65 63 64 67 62 65 67 68 68 68 69 69 69 69 68
35 27 34 27 22 22 21 20 17 21 25 25 31 36 41 41 38 37 41 41 46 48 50 53 60 63 68 65 65 65 64 65 66 66 66 67 67 67 68 68 68 69 69 68
42 45 35 28 33 27 24 25 20 19 23 24 31 35 42 38 37 39 43 45 43 48 50 53 55 61 66 64 63 65 64 65 67 67 66 66 67 67 68 68 68 69 69 69
45 46 36 32 27 27 27 29 35 36 35 31 31 36 40 36 34 45 46 42 45 51 57 58 52 57 65 64 65 65 63 63 65 65 66 66 66 67 67 67 68 69 68 67
39 48 46 36 29 27 34 33 36 39 35 41 40 40 39 37 33 48 53 47 47 50 56 58 59 61 65 64 64 64 62 64 63 64 65 67 67 67 67 68 68 67 69 66
32 36 32 31 30 27 32 36 38 38 41 45 44 43 44 45 46 54 53 51 51 53 56 59 63 64 67 66 64 62 62 63 64 64 66 67 68 69 69 70 69 69 65 65
38 36 32 35 33 31 36 40 38 51 50 44 42 47 46 43 43 44 46 54 54 56 58 60 64 66 67 67 67 64 65 68 70 68 67 68 69 65 62 69 69 66 68 65
33 45 48 46 47 52 45 47 48 47 50 46 47 44 44 42 42 43 47 51 55 56 59 60 63 67 67 67 70 69 70 71 70 71 70 70 70 68 69 67 67 66 65 65
47 48 44 48 53 53 47 45 45 44 45 41 42 42 42 42 43 47 50 54 57 55 59 61 64 65 66 70 70 71 70 71 69 70 70 70 70 70 68 66 66 63 65 63
49 52 49 46 51 49 46 44 44 42 44 42 42 41 42 45 48 51 53 60 56 63 60 63 62 62 63 63 64 64 65 67 68 69 69 69 66 66 63 58 57 60 52 51
35 45 42 42 45 46 44 42 41 41 41 43 44 42 43 46 52 55 61 60 62 63 62 62 64 64 62 63 65 66 64 67 67 66 63 62 62 58 62 58 53 46 45 43
Lifted_Index
5 5 3 0 -1 -1 -1 -1 -1 -0 -1 -1 -1 -1 -1 -1 -1 -1 -1 -2 -2 -2 -3 -3 -4 -4 -5 -6 -6 -7 -7 -7 -7 -7 -7 -6 -6 -6 -6 -6 -6 -6 -6 -5
5 4 2 0 -1 -1 -1 -1 -1 -1 -1 -1 -1 -1 -1 -1 -1 -1 -1 -2 -2 -2 -2 -3 -3 -4 -4 -6 -6 -7 -7 -7 -7 -7 -7 -7 -6 -6 -5 -5 -5 -5 -4 -4
5 3 1 -0 -1 -1 -1 -1 -1 -1 -1 -0 -1 -1 -1 -1 -1 -1 -1 -1 -2 -2 -2 -3 -3 -4 -4 -5 -6 -7 -7 -8 -7 -7 -6 -6 -5 -4 -3 -4 -4 -3 -3 -2
4 2 0 -1 -1 -1 -1 -1 -1 -1 -1 -1 -0 -0 -1 -1 -1 -1 -1 -1 -1 -1 -2 -2 -3 -4 -4 -5 -6 -7 -8 -8 -7 -6 -4 -3 -2 -1 -1 -1 -1 -1 -1 -1
2 1 -0 -1 -1 -1 -1 -1 -1 -1 -1 -1 -1 -1 -1 -1 -1 -1 -1 -1 -1 -1 -2 -2 -3 -3 -4 -5 -6 -7 -7 -7 -6 -4 -2 -1 0 1 1 0 0 0 -0 -0
1 0 -0 -1 -1 -1 -1 -1 -1 -1 -1 -1 -1 -1 -1 -1 -1 -1 -1 -1 -1 -1 -2 -2 -2 -2 -3 -4 -5 -7 -7 -6 -4 -2 -1 0 1 1 1 0 0 0 1 0
1 0 -0 -1 -1 -1 -1 -1 -1 -1 -1 -1 -1 -1 -1 -1 -2 -2 -2 -2 -2 -2 -2 -2 -2 -3 -3 -4 -5 -6 -6 -5 -3 -2 -0 1 1 1 0 -0 -0 0 1 1
0 -0 -0 -0 -1 -1 -1 -1 -1 -1 -1 -1 -1 -1 -0 -0 -1 -2 -2 -2 -2 -2 -2 -3 -3 -3 -4 -5 -6 -6 -5 -4 -3 -2 -1 0 0 -0 -0 -1 -0 0 0 0
-0 -0 -1 -1 -1 -1 -1 -0 -1 -1 -1 -1 -1 -1 -0 0 0 -0 -0 -1 -2 -2 -2 -3 -4 -4 -4 -5 -6 -5 -5 -4 -3 -2 -2 -2 -1 -1 -1 -1 -0 -0 -0 -0
-1 -1 -1 -1 -1 -1 -1 -0 -1 -1 -1 -1 -1 -1 -1 0 1 1 1 1 -1 -2 -2 -3 -4 -4 -5 -5 -5 -5 -5 -4 -3 -3 -2 -2 -1 -1 -1 -1 -1 -1 -1 -1
-1 -1 -1 -1 -1 -1 -1 -1 -1 -1 -1 -1 -1 -1 -0 0 1 1 1 1 0 -1 -3 -4 -4 -5 -5 -5 -5 -4 -4 -4 -3 -3 -2 -2 -1 -1 -1 -1 -1 -1 -1 -1
-1 -1 -1 -1 -1 -1 -1 -1 -1 -1 -1 -1 -1 -1 -0 1 1 1 1 1 -0 -1 -3 -4 -5 -6 -6 -5 -4 -4 -3 -3 -3 -3 -2 -2 -1 -1 -1 -1 -1 -1 -1 -1
-1 -1 -1 -1 -1 -1 -1 -1 -1 -1 -1 -1 -1 -0 0 1 1 1 1 0 -1 -2 -4 -5 -6 -6 -6 -5 -5 -3 -3 -2 -2 -2 -2 -2 -2 -2 -2 -2 -1 -1 -1 -1
-1 -1 -1 -1 -1 -1 -1 -1 -1 -1 -1 -1 -1 -0 0 0 -0 0 0 0 -1 -2 -4 -5 -6 -6 -6 -5 -5 -4 -3 -2 -2 -2 -2 -2 -2 -2 -2 -2 -2 -1 -1 -2
-0 -1 -1 -1 -1 -1 -1 -1 -1 -1 -1 -1 -1 -0 -0 -0 -0 0 1 1 0 -1 -3 -5 -6 -6 -6 -6 -5 -4 -3 -2 -2 -2 -2 -2 -3 -3 -3 -3 -2 -2 -2 -2
-0 -0 -0 -1 -1 -1 -1 -1 -1 -1 -1 -1 -1 -0 -0 -0 0 1 2 2 1 0 -1 -3 -5 -6 -7 -6 -5 -5 -4 -3 -2 -2 -3 -3 -3 -3 -3 -3 -3 -2 -2 -2
-0 -0 -0 -0 -1 -1 -1 -1 -1 -1 -1 -1 -1 -0 -0 0 1 2 2 2 1 1 -0 -2 -4 -6 -7 -6 -5 -5 -4 -3 -3 -4 -4 -4 -4 -3 -3 -3 -3 -2 -2 -2
-1 -1 -0 -0 -0 -1 -0 -0 -0 -1 -1 -1 -0 0 0 0 1 2 2 2 1 0 -0 -1 -3 -5 -6 -6 -5 -5 -4 -4 -4 -4 -4 -4 -4 -4 -4 -3 -3 -3 -3 -3
-0 -1 -1 -1 -0 -0 -0 -0 -0 -0 -0 -0 -0 -0 -0 0 1 1 1 1 1 -0 -1 -2 -3 -4 -6 -5 -5 -4 -4 -4 -4 -5 -5 -5 -4 -4 -4 -4 -3 -3 -3 -3
-0 -0 -1 -1 -0 -0 -0 -0 0 0 0 0 -0 -0 -0 0 0 -1 -1 -0 -0 -1 -2 -3 -3 -5 -6 -6 -5 -4 -4 -4 -4 -5 -5 -5 -5 -4 -4 -4 -4 -3 -3 -2
-0 -0 -0 -0 -0 -0 -0 -0 -0 0 0 -0 -0 -0 -0 0 -1 -1 -1 -1 -1 -2 -3 -4 -5 -6 -6 -6 -5 -4 -4 -4 -5 -5 -5 -6 -5 -5 -4 -4 -4 -3 -2 -2
-1 -1 -0 -0 -1 -1 -1 -1 -1 -1 -1 -1 -1 -0 -0 -1 -1 -1 -1 -2 -2 -2 -3 -5 -5 -6 -6 -5 -5 -4 -5 -5 -6 -6 -6 -6 -6 -5 -4 -4 -4 -3 -3 -2
-1 -1 -1 -1 -1 -1 -1 -1 -1 -1 -1 -0 -0 -0 -1 -1 -1 -1 -1 -2 -3 -3 -4 -5 -6 -6 -6 -5 -5 -5 -6 -7 -7 -8 -7 -7 -6 -5 -5 -4 -4 -4 -3 -3
-1 -1 -1 -1 -1 -1 -1 -1 -0 -0 -0 0 0 -0 -0 -1 -1 -1 -2 -3 -4 -3 -4 -4 -5 -5 -5 -5 -5 -6 -7 -7 -8 -8 -8 -7 -7 -6 -5 -4 -4 -3 -3 -2
-1 -1 -1 -1 -0 -0 0 1 1 1 1 0 0 0 -0 -1 -1 -2 -3 -4 -4 -3 -3 -3 -4 -4 -3 -3 -4 -5 -5 -6 -7 -8 -7 -7 -6 -5 -4 -3 -2 -2 -2 -1
-0 -0 -1 -0 0 0 1 1 1 1 1 1 1 0 -0 -1 -2 -4 -4 -5 -4 -3 -3 -3 -3 -3 -2 -1 -2 -3 -3 -5 -6 -7 -7 -6 -5 -4 -3 -2 -1 -1 -0 0